This is the latest recevied weather packets stored in our database for station/object NEWPRT. If no packets are shown the sender has not sent any weather packets the latest 10 day(s).
| Time | Temp. | Humidity | Pressure | Rain* | Wind** | Luminosity | Snow |
|---|---|---|---|---|---|---|---|
| 1777813640 | - | 42% | 1012.2 hPa | 0 mm | - | - | - |
| 1777813317 | - | 42% | 1012.3 hPa | 0 mm | - | - | - |
| 1777812994 | - | 42% | 1012.3 hPa | 0 mm | - | - | - |
| 1777812671 | - | 40% | 1012 hPa | 0 mm | - | - | - |
| 1777812348 | - | 41% | 1012.1 hPa | 0 mm | - | - | - |
| 1777812025 | - | 41% | 1012.3 hPa | 0 mm | - | - | - |
| 1777811702 | - | 41% | 1012.2 hPa | 0 mm | - | - | - |
| 1777811379 | - | 42% | 1012.3 hPa | 0 mm | - | - | - |
| 1777811056 | - | 43% | 1012.4 hPa | 0 mm | - | - | - |
| 1777810733 | - | 44% | 1012.3 hPa | 0 mm | - | - | - |
| 1777810412 | - | 42% | 1012.2 hPa | 0 mm | - | - | - |
| 1777810088 | - | 43% | 1012.4 hPa | 0 mm | - | - | - |
| 1777809765 | - | 42% | 1012.4 hPa | 0 mm | - | - | - |
| 1777809441 | - | 43% | 1012.4 hPa | 0 mm | - | - | - |
| 1777809118 | - | 44% | 1012.6 hPa | 0 mm | - | - | - |
| 1777808795 | - | 44% | 1012.6 hPa | 0 mm | - | - | - |
| 1777808473 | - | 43% | 1012.5 hPa | 0 mm | - | - | - |
| 1777808149 | - | 43% | 1012.5 hPa | 0 mm | - | - | - |
| 1777807827 | - | 43% | 1012.7 hPa | 0 mm | - | - | - |
| 1777807503 | - | 42% | 1012.8 hPa | 0 mm | - | - | - |
| 1777807180 | - | 42% | 1012.6 hPa | 0 mm | - | - | - |
| 1777806857 | - | 44% | 1012.7 hPa | 0 mm | - | - | - |
| 1777806534 | - | 47% | 1012.7 hPa | 0 mm | - | - | - |
| 1777806211 | - | 46% | 1012.8 hPa | 0 mm | - | - | - |
| 1777805888 | - | 45% | 1012.7 hPa | 0 mm | - | - | - |
* Rain latest hour (hover to see other rain measurements)
** Current wind speed in m/s (hover to see current wind gust speed)